Satellite: ORSTED
Catalog number: 25635
Epoch time:      103Element set:     842 
Inclination:       96.4528 deg
RA of node:        42.9886 deg
Eccentricity:    0.0144227
Arg of perigee:   299.6474 deg
Mean anomaly:      59.0421 deg
Mean motion:   14.44858228 rev/day
Decay rate:    5.2199E-006 rev/day^2
Epoch rev:           21130
Checksum:              331

Satellite: SUNSAT
Catalog number: 25636
Epoch time:      103059.56395600
Element set:     667 
Inclination:       96.4553 deg
RA of node:        42.0424 deg
Eccentricity:    0.0148146
Arg of perigee:   304.4324 deg
Mean anomaly:      54.2943 deg
Mean motion:   14.42964474 rev/day
Decay rate:    3.1100E-006 rev/day^2
Epoch rev:           21125
Checksum:              285

Satellite: UOSAT 12
Catalog number: 25693
Epoch time:      103059.23640848
Element set:     745 
Inclination:       64.5606 deg
RA of node:       341.1943 deg
Eccentricity:    0.0021224
Arg of perigee:   315.6825 deg
Mean anomaly:      44.2588 deg
Mean motion:   14.76397958 rev/day
Decay rate:    2.1700E-006 rev/day^2
Epoch rev:           20768
Checksum:              326

Satellite: FENGYUN 1C
Catalog number: 25730
Epoch time:      103059.22115396
Element set:     777 
Inclination:       98.6341 deg
RA of node:        83.2591 deg
Eccentricity:    0.0014129
Arg of perigee:   338.9693 deg
Mean anomaly:      2Mean motion:   14.11734591 rev/day
Decay rate:   -3.7000E-007 rev/day^2
Epoch rev:           19599
Checksum:              322

Satellite: ASTRA 1H
Catalog number: 25785
Epoch time:      103057.00000000
Element set:     373 
Inclination:        0.0122 deg
RA of node:       319.8851 deg
Eccentricity:    0.0002995
Arg of perigee:    65.1991 deg
Mean anomaly:     149.5614 deg
Mean motion:    1.00273184 rev/day
Decay rate:    1.0400E-006 rev/day^2
Epoch rev:            1357
Checksum:              244

Satellite: TERRA
Catalog number: 25994
Epoch time:      103059.26966717
Element set:     738 
Inclination:       98.1943 deg
RA of node:       135.3381 deg
Eccentricity:    0.0000897
Arg of perigee:    78.9953 deg
Mean anomaly:     281.1346 deg
Mean motion:   14.57140128 rev/day
Decay rate:    3.2699E-006 rev/day^2
Epoch rev:           17008
Checksum:              350

Satellite: JAWSAT
Catalog number: 26061
Epoch time:      103058.55583121
Element set:     775 
Inclination:      100.2030 deg
RA of node:       117.2899 deg
Eccentricity:    0.0034774
Arg of perigee:   253.6770 deg
Mean anomaly:     106.0587 deg
Mean motion:   14.37834210 rev/day
Decay rate:    3.6500E-006 rev/day^2
Epoch rev:           16182
Checksum:              285

Satellite: OPAL
Catalog number: 26063
Epoch time:      103059.17396963
Element set:     730 
Inclination:      100.2064 deg
RA of node:       115.4925 deg
Eccentricity:    0.0036729
Arg of perigee:   260.0355 deg
Mean anomaly:      99.6675 deg
Mean motion:   14.35484687 rev/day
Decay rate:    7.5000E-007 rev/day^2
Epoch rev:           16176
Checksum:              316

Satellite: ASUSAT
Catalog number: 26065
Epoch time:      103059.54885155
Element set:     744 
Inclination:      100.2101 deg
RA of node:       116.0904 deg
Eccentricity:    0.0036918
Arg of perigee:   259.5521 deg
Mean anomaly:     100.1497 deg
Mean motion:   14.35512568 rev/day
Decay rate:    7.0999E-007 rEpoch rev:           16181
Checksum:              400

Satellite: GOES 11
Catalog number: 26352
Epoch time:      103059.36730860
Element set:     43 
Inclination:        0.1650 deg
RA of node:       102.3672 deg
Eccentricity:    0.0003356
Arg of perigee:   206.6311 deg
Mean anomaly:     227.3707 deg
Mean motion:    1.00266098 rev/day
Decay rate:   -5.2000E-007 rev/day^2
Epoch rev:            1033
Checksum:              237

Satellite: EUTELSAT W4
Catalog number: 26369
Epoch time:      103056.75615172
Element set:     355 
Inclination:        0.0374 deg
RA of node:        10.0316 deg
Eccentricity:    0.0003506
Arg of perigee:   335.6383 deg
Mean anomaly:     117.8134 deg
Mean motion:    1.00274569 rev/day
Decay rate:    1.4099E-006 rev/day^2
Epoch rev:            1012
Checksum:              262

Satellite: FENGYUN 2B
Catalog number: 26382
Epoch time:      103058.23084955
Element set:     802 
Inclination:        0.5412 deg
RA of node:       287.4213 deg
Eccentricity:    0.0001691
Arg of perigee:   201.9374 deg
Mean anomaly:     214.8479 deg
Mean motion:    1.00270913 rev/day
Decay rate:   -3.4800E-006 rev/day^2
Epoch rev:             979
Checksum:              281

Satellite: EUTELSAT W1
Catalog number: 26487
Epoch time:  Element set:     360 
Inclination:        0.0117 deg
RA of node:       237.1097 deg
Eccentricity:    0.0004020
Arg of perigee:    87.6348 deg
Mean anomaly:     229.9765 deg
Mean motion:    1.00272161 rev/day
Decay rate:    4.8999E-007 rev/day^2
Epoch rev:             910
Checksum:              295

Satellite: ASTRA 2B
Catalog number: 26494
Epoch time:      103057.00000000
Element set:     256 
Inclination:        0.0178 deg
RA of node:       354.5658 deg
Eccentricity:    0.0005000
Arg of perigee:   302.8402 deg
Mean anomaly:     246.1704 deg
Mean motion:    1.00276704 rev/day
Decay rate:    1.3400E-006 rev/day^2
Epoch rev:             899
Checksum:              231

Satellite: NOAA 16
Catalog number: 26536
Epoch time:      103058.86526750
Element set:     225 
Inclination:       98.9027 deg
RA of node:         7.0806 deg
Eccentricity:    0.0009845
Arg of perigee:   283.5746 deg
Mean anomaly:      76.4316 deg
Mean motion:   14.11908009 rev/day
Decay rate:   -9.0999E-007 rev/day^2
Epoch rev:           12546
Checksum:              342

Satellite: SAUDISAT 1A
Catalog number: 26545
Epoch time:      103058.87694817
Element set:     420 
Inclination:       64.5600 deg
RA of node:         3.3132 deg
Eccentricity:    0.0051403
Arg of perigee:   237.3870 deg
Mean anomaly:     Mean motion:   14.79000903 rev/day
Decay rate:    5.3099E-006 rev/day^2
Epoch rev:           13060
Checksum:              276

Satellite: UNISAT
Catalog number: 26547
Epoch time:      103058.85847421
Element set:     439 
Inclination:       64.5591 deg
RA of node:         5.5680 deg
Eccentricity:    0.0058603
Arg of perigee:   239.2536 deg
Mean anomaly:     120.2799 deg
Mean motion:   14.79779401 rev/day
Decay rate:    9.6800E-006 rev/day^2
Epoch rev:           13056
Checksum:              332

Satellite: TIUNGSAT 1
Catalog number: 26548
Epoch time:      103059.29013396
Element set:     421 
Inclination:       64.5589 degRA of node:       354.8244 deg
Eccentricity:    0.0044648
Arg of perigee:   236.6766 deg
Mean anomaly:     123.0077 deg
Mean motion:   14.81297076 rev/day
Decay rate:    7.6799E-006 rev/day^2
Epoch rev:           13080
Checksum:              342

Satellite: SAUDISAT 1B
Catalog number: 26549
Epoch time:      103058.91972262
Element set:     703 
Inclination:       64.5539 deg
RA of node:         7.3451 deg
Eccentricity:    0.0055967
Arg of perigee:   237.2066 deg
Mean anomaly:     122.3640 deg
Mean motion:   14.77937556 rev/day
Decay rate:    4.8100E-006 rev/day^2
Epoch rev:           13052
Checksum:              311

Satellite: AMSAT OCatalog number: 26609
Epoch time:      103058.16686962
Element set:     312 
Inclination:        8.1401 deg
RA of node:        62.4789 deg
Eccentricity:    0.7944119
Arg of perigee:   148.1042 deg
Mean anomaly:     305.2468 deg
Mean motion:    1.25596203 rev/day
Decay rate:   -2.6699E-006 rev/day^2
Epoch rev:            1069
Checksum:              319

Satellite: GOES 12
Catalog number: 26871
Epoch time:      103059.57649229
Element set:     843 
Inclination:        0.3031 deg
RA of node:       276.6038 deg
Eccentricity:    0.0002337
Arg of perigee:    24.0593 deg
Mean anomaly:     333.5659 deg
Mean motion:    1.00359880 rev/day
Decay rate:   -2.040Epoch rev:             593
Checksum:              287

Satellite: PCSAT
Catalog number: 26931
Epoch time:      103058.97305784
Element set:     429 
Inclination:       67.0472 deg
RA of node:       231.4029 deg
Eccentricity:    0.0005129
Arg of perigee:   268.6778 deg
Mean anomaly:      91.3737 deg
Mean motion:   14.29119052 rev/day
Decay rate:    7.4000E-007 rev/day^2
Epoch rev:            7369
Checksum:              426

Satellite: SAPPHIRE
Catalog number: 26932
Epoch time:      103059.15985973
Element set:     407 
Inclination:       67.0538 deg
RA of node:       230.6248 deg
Eccentricity:    0.0004621
Arg of perigee:   242.9855 deg
Mean anomaly:     117.0775 deg
Mean motion:   14.29296881 rev/day
Decay rate:    1.7000E-007 rev/day^2
Epoch rev:            7374
Checksum:              323

Satellite: ENVISAT
Catalog number: 27386
Epoch time:      103059.53508348
Element set:     962 
Inclination:       98.5482 deg
RA of node:       127.9385 deg
Eccentricity:    0.0000992
Arg of perigee:    90.3089 deg
Mean anomaly:     269.8210 deg
Mean motion:   14.32248803 rev/day
Decay rate:    3.0999E-007 rev/day^2
Epoch rev:            5217
Checksum:              341

Satellite: IDEFIX/ARIANE 
Catalog number: 27422
Epoch time:    Element set:     243 
Inclination:       98.6939 deg
RA of node:       138.3589 deg
Eccentricity:    0.0013337
Arg of perigee:   119.9402 deg
Mean anomaly:     240.3107 deg
Mean motion:   14.27973859 rev/day
Decay rate:    1.0100E-006 rev/day^2
Epoch rev:            4283
Checksum:              307

